This is the latest recevied weather packets stored in our database for station/object N9WHM. If no packets are shown the sender has not sent any weather packets the latest 10 day(s).
| Time | Temp. | Humidity | Pressure | Rain* | Wind** | Luminosity | Snow |
|---|---|---|---|---|---|---|---|
| 1778377552 | 16.67° C | 31% | 1013.8 hPa | 0 mm | - | 1 W/m² | - |
| 1778377249 | 16.67° C | 31% | 1013.6 hPa | 0 mm | - | 1 W/m² | - |
| 1778376944 | 17.22° C | 31% | 1013.8 hPa | 0 mm | - | 2 W/m² | - |
| 1778376640 | 17.22° C | 31% | 1013.5 hPa | 0 mm | - | 3 W/m² | - |
| 1778376334 | 17.78° C | 31% | 1013.5 hPa | 0 mm | - | 6 W/m² | - |
| 1778376031 | 17.78° C | 31% | 1013.3 hPa | 0 mm | - | 8 W/m² | - |
| 1778375730 | 18.33° C | 31% | 1013.2 hPa | 0 mm | - | 12 W/m² | - |
| 1778375426 | 18.33° C | 30% | 1013 hPa | 0 mm | - | 15 W/m² | - |
| 1778375123 | 18.33° C | 30% | 1013 hPa | 0 mm | - | 20 W/m² | - |
| 1778374820 | 18.89° C | 31% | 1012.9 hPa | 0 mm | - | 24 W/m² | - |
| 1778374515 | 18.89° C | 30% | 1013 hPa | 0 mm | - | 31 W/m² | - |
| 1778374214 | 18.89° C | 30% | 1012.9 hPa | 0 mm | - | 35 W/m² | - |
| 1778373911 | 18.89° C | 30% | 1012.9 hPa | 0 mm | - | 43 W/m² | - |
| 1778373609 | 19.44° C | 30% | 1012.8 hPa | 0 mm | - | 51 W/m² | - |
| 1778373305 | 20° C | 30% | 1012.5 hPa | 0 mm | - | 57 W/m² | - |
| 1778373001 | 20° C | 30% | 1012.5 hPa | 0 mm | - | 65 W/m² | - |
| 1778372697 | 20° C | 30% | 1012.5 hPa | 0 mm | - | 72 W/m² | - |
| 1778372393 | 20.56° C | 30% | 1012.3 hPa | 0 mm | - | 85 W/m² | - |
| 1778372091 | 20.56° C | 29% | 1012.3 hPa | 0 mm | - | 93 W/m² | - |
| 1778371789 | 20.56° C | 29% | 1012.2 hPa | 0 mm | - | 103 W/m² | - |
| 1778371484 | 20° C | 29% | 1012.3 hPa | 0 mm | - | 114 W/m² | - |
| 1778371181 | 20° C | 29% | 1012.3 hPa | 0 mm | - | 127 W/m² | - |
| 1778370878 | 20.56° C | 28% | 1012.2 hPa | 0 mm | - | 134 W/m² | - |
| 1778370574 | 20.56° C | 28% | 1012.1 hPa | 0 mm | - | 144 W/m² | - |
| 1778370271 | 20.56° C | 28% | 1011.8 hPa | 0 mm | - | 142 W/m² | - |
* Rain latest hour (hover to see other rain measurements)
** Current wind speed in m/s (hover to see current wind gust speed)